Simultaneous Nadir Overpasses (SNOs) Predictions

Prediction of SNOs between LANDSAT-8 and NOAA-19 Satellite Orbit:

Table of predicted SNOs for the next 14.0 days since TLE Epoch: 9/7/2024
Index Date (LANDSAT-8) Time (LANDSAT-8) Lat,Lon (LANDSAT-8) SZA (LANDSAT-8 ) Date (NOAA-19) Time (NOAA-19) Lat,Lon (NOAA-19) SZA (NOAA-19 ) Distance(km) Time Diff (sec)
1 09/08/2024 13:17:48 -80.49,-167.34 103.39 09/08/2024 13:17:14 -80.50,-167.21 103.38 2.55 34
2 09/08/2024 14:07:12 80.55, 0.98 76.74 09/08/2024 14:08:07 80.54, 0.90 76.75 1.90 55
3 09/10/2024 19:40:58 -80.48, 96.74 102.54 09/10/2024 19:39:58 -80.47, 96.62 102.58 2.49 60
4 09/10/2024 20:30:23 80.51, -95.29 77.53 09/10/2024 20:30:51 80.50, -95.46 77.53 3.20 28
5 09/13/2024 02:53:32 80.49, 168.73 78.38 09/13/2024 02:53:33 80.49, 168.73 78.38 0.42 1
6 09/15/2024 09:16:39 80.47, 72.72 79.23 09/15/2024 09:16:14 80.47, 72.77 79.23 1.31 25
7 09/15/2024 10:06:04 -80.53,-118.99 100.65 09/15/2024 10:07:15 -80.52,-119.14 100.64 2.79 71
8 09/17/2024 15:39:45 80.47, -23.02 80.12 09/17/2024 15:38:55 80.47, -22.99 80.10 0.71 50
9 09/17/2024 16:29:11 -80.50, 144.97 99.81 09/17/2024 16:29:57 -80.50, 144.88 99.80 1.52 46
10 09/19/2024 22:03:08 79.87,-124.18 80.03 09/19/2024 22:01:54 80.04,-124.73 80.11 22.14 74



Historial Predications of SNOs between LANDSAT-8 and NOAA-19
